Greer, SC

12:15 AM EST on January 24, 2017 (GMT -0500)
Greenville-Spartanburg International

Weather History for KGSP - February, 2012

Change the Weather History Date:

Wednesday, February 1, 2012

  Actual Average Record
Temperature  
Mean Temperature 53 °F 43 °F  
Max Temperature 65 °F 54 °F 73 °F (1957)
Min Temperature 41 °F 33 °F 9 °F (1936)
Degree Days  
Heating Degree Days 12 22  
Month to date heating degree days 12 22  
Since 1 July heating degree days 1651 1932  
Cooling Degree Days 0 0  
Month to date cooling degree days 0 0  
Year to date cooling degree days 0 0  
Growing Degree Days 2 (Base 50)    
Moisture  
Dew Point 43 °F    
Average Humidity 76    
Maximum Humidity 100    
Minimum Humidity 52    
Precipitation  
Precipitation 0.03 in 0.13 in 1.95 in (1902)
Month to date precipitation 0.03 0.13  
Year to date precipitation 3.95 3.95  
Snow  
Snow 0.00 in 0.00 in 1.50 in (2007)
Month to date snowfall 0.0 0.0  
Since 1 July snowfall 0.0 2.8  
Snow Depth 0.00 in    
Sea Level Pressure  
Sea Level Pressure 30.17 in    
Wind  
Wind Speed 6 mph (SW)    
Max Wind Speed 16 mph    
Max Gust Speed 20 mph    
Visibility 9 miles    
Events Rain    
T = Trace of Precipitation, MM = Missing Value Source: NWS Daily Summary

Daily Weather History Graph

Daily Weather History Graph

Search for Another Location

Airport or City:

Trip Planner

Search our weather history database for the weather conditions in past years. The results will help you decide how hot, cold, wet, or windy it might be!

Date:

Astronomy

Feb. 01, 2012 Rise Set
Actual Time 7:27 AM EST 5:57 PM EST
Civil Twilight 7:01 AM EST 6:23 PM EST
Nautical Twilight 6:31 AM EST 6:54 PM EST
Astronomical Twilight 6:01 AM EST 7:24 PM EST
Moon 12:28 PM EST (2/1) 2:09 AM EST (2/1)
Length of Visible Light 11h 22m
Length of Day
10h 29m
Waxing Gibbous, 64% of the Moon is Illuminated
Feb 1
Waxing Gibbous
Feb 7
Full
Feb 14
Last Quarter
Feb 21
New
Feb 29
First Quarter

Hourly Weather History & Observations

Time (EST) Temp. Windchill Dew Point Humidity Pressure Visibility Wind Dir Wind Speed Gust Speed Precip Events Conditions
12:53 AM 48.0 °F - 33.1 °F 56% 30.27 in 10.0 mi SW 5.8 mph - N/A   Clear
1:53 AM 46.0 °F - 33.1 °F 61% 30.26 in 10.0 mi Calm Calm - N/A   Clear
2:53 AM 44.1 °F - 33.1 °F 65% 30.25 in 10.0 mi Calm Calm - N/A   Clear
3:53 AM 42.1 °F - 33.1 °F 70% 30.24 in 10.0 mi Calm Calm - N/A   Clear
4:53 AM 43.0 °F 41.3 °F 34.0 °F 71% 30.23 in 10.0 mi SE 3.5 mph - N/A   Clear
5:53 AM 44.1 °F 41.5 °F 34.0 °F 68% 30.23 in 10.0 mi SE 4.6 mph - N/A   Clear
6:53 AM 44.1 °F 40.1 °F 35.1 °F 71% 30.23 in 10.0 mi South 6.9 mph - N/A   Mostly Cloudy
7:53 AM 48.0 °F - 35.1 °F 61% 30.23 in 10.0 mi SSW 9.2 mph - N/A   Partly Cloudy
8:53 AM 50.0 °F - 37.9 °F 63% 30.24 in 10.0 mi SW 9.2 mph - 0.00 in   Mostly Cloudy
9:53 AM 55.9 °F - 39.0 °F 53% 30.23 in 10.0 mi SW 9.2 mph - N/A   Mostly Cloudy
10:53 AM 55.9 °F - 41.0 °F 57% 30.22 in 10.0 mi WSW 9.2 mph - N/A   Scattered Clouds
11:53 AM 59.0 °F - 43.0 °F 55% 30.20 in 10.0 mi SW 6.9 mph - N/A   Partly Cloudy
12:53 PM 62.1 °F - 44.1 °F 52% 30.15 in 10.0 mi SW 12.7 mph - N/A   Partly Cloudy
1:53 PM 63.0 °F - 46.0 °F 54% 30.13 in 10.0 mi WSW 12.7 mph - N/A   Mostly Cloudy
2:53 PM 63.0 °F - 45.0 °F 52% 30.12 in 10.0 mi WSW 10.4 mph - N/A   Mostly Cloudy
3:53 PM 63.0 °F - 46.0 °F 54% 30.12 in 10.0 mi SW 5.8 mph - N/A   Scattered Clouds
4:53 PM 61.0 °F - 48.0 °F 62% 30.12 in 10.0 mi West 4.6 mph - 0.00 in Rain Light Rain
5:53 PM 55.9 °F - 50.0 °F 80% 30.13 in 10.0 mi WNW 5.8 mph - 0.00 in Rain Light Rain
6:53 PM 53.1 °F - 51.1 °F 93% 30.12 in 7.0 mi Calm Calm - 0.03 in Rain Light Rain
7:53 PM 53.1 °F - 51.1 °F 93% 30.11 in 8.0 mi SSW 5.8 mph - 0.00 in   Overcast
8:53 PM 52.0 °F - 51.1 °F 97% 30.11 in 7.0 mi SW 3.5 mph - 0.00 in   Overcast
9:53 PM 53.1 °F - 51.1 °F 93% 30.09 in 7.0 mi SSW 3.5 mph - 0.00 in   Overcast
10:34 PM 53.6 °F - 51.8 °F 94% 30.10 in 6.0 mi Calm Calm - N/A   Overcast
10:53 PM 53.1 °F - 51.1 °F 93% 30.09 in 7.0 mi Calm Calm - N/A   Overcast
11:53 PM 53.1 °F - 51.1 °F 93% 30.07 in 5.0 mi South 6.9 mph - N/A   Overcast